Date String (YYYY-MM-DD hh:mm:ss) UTC,Instrument flags,absolute air pressure of the measurement (hPa),sample flow rate (lpm),inlet stack bypass flow (lpm),air temperature of the measurement (°C),ambient temperature measured by the external sensor (°C),aerosol sample conditioner tube jacket temperature (°C),OPC LED temperature (°C),internal box temperature (°C),relative humidity of the measurement (%),span deviation,mass concentration of particles derived from Lorenz-Mie calculation of OPC scattering (μg/m³),mass concentration of particles derived from Lorenz-Mie calculation of OPC scattering (μg/m³),mass concentration of particles derived from Lorenz-Mie calculation of OPC scattering (μg/m³)
DateTimeUTC,F1_M11,P_M11,Q1_M11,Q2_M11,T1_M11,T2_M11,T3_M11,T4_M11,T5_M11,U1_M11,ZSPAN_M11,X2_M11,X0_M11,X1_M11
2023-10-13 12:00:00,SystemResetWarning,0830.5,5.00,000.00,023.7,022.0,000.0,032.3,025.1,16.4,0000.0,0002.23,0005.95,0001.94
2023-10-13 12:01:00,SystemResetWarning,0830.7,5.01,000.00,023.7,022.0,000.0,032.3,025.1,16.4,0000.0,0002.20,0004.82,0001.94
2023-10-13 12:02:00,SystemResetWarning,0830.6,5.01,000.00,023.7,022.0,000.0,032.3,025.1,16.4,0000.0,0002.17,0004.63,0001.93
2023-10-13 12:03:00,SystemResetWarning,0830.5,5.00,000.00,023.6,021.9,000.0,032.3,025.1,16.4,0000.0,0002.17,0003.77,0001.93
2023-10-13 12:04:00,SystemResetWarning,0830.6,5.00,000.00,023.6,021.9,000.0,032.2,025.1,16.5,0000.0,0002.18,0003.74,0001.93
2023-10-13 12:05:00,SystemResetWarning,0830.5,4.99,000.00,023.6,021.9,000.0,032.2,025.1,16.5,0000.0,0002.18,0003.76,0001.93
2023-10-13 12:06:00,SystemResetWarning,0830.6,4.99,000.00,023.6,021.9,000.0,032.2,025.1,16.5,0000.0,0002.18,0003.85,0001.91
2023-10-13 12:07:00,SystemResetWarning,0830.6,5.00,000.00,023.6,021.9,000.0,032.2,025.1,16.4,0000.0,0002.23,0003.84,0001.91
2023-10-13 12:08:00,SystemResetWarning,0830.7,5.00,000.00,023.6,021.9,000.0,032.2,025.0,16.4,0000.0,0002.21,0003.34,0001.89
2023-10-13 12:09:00,SystemResetWarning,0830.7,5.00,000.00,023.5,021.9,000.0,032.2,025.0,16.4,0000.0,0002.20,0003.34,0001.88
2023-10-13 12:10:00,SystemResetWarning,0830.7,5.01,000.00,023.5,021.9,000.0,032.1,025.0,16.4,0000.0,0002.18,0003.04,0001.88
2023-10-13 12:11:00,SystemResetWarning,0830.7,5.00,000.00,023.5,021.8,000.0,032.1,025.0,16.4,0000.0,0002.19,0003.00,0001.87
2023-10-13 12:12:00,SystemResetWarning,0830.7,5.00,000.00,023.5,021.8,000.0,032.1,024.9,16.5,0000.0,0002.19,0003.00,0001.87
2023-10-13 12:13:00,SystemResetWarning,0830.7,5.00,000.00,023.5,021.8,000.0,032.1,024.9,16.5,0000.0,0002.19,0003.02,0001.86
2023-10-13 12:14:00,SystemResetWarning,0830.7,5.00,000.00,023.4,021.7,000.0,032.1,024.9,16.5,0000.0,0002.17,0002.99,0001.86
2023-10-13 12:15:00,SystemResetWarning,0830.7,5.00,000.00,023.4,021.7,000.0,032.1,024.9,16.5,0000.0,0002.18,0003.04,0001.87
2023-10-13 12:16:00,SystemResetWarning,0830.7,5.00,000.00,023.4,021.7,000.0,032.0,024.8,16.5,0000.0,0002.19,0003.47,0001.86
2023-10-13 12:17:00,SystemResetWarning,0830.6,5.00,000.00,023.4,021.6,000.0,032.0,024.8,16.5,0000.0,0002.15,0003.32,0001.85
2023-10-13 12:18:00,SystemResetWarning,0830.6,5.00,000.00,023.4,021.6,000.0,032.0,024.8,16.6,0000.0,0002.12,0003.19,0001.86
2023-10-13 12:19:00,SystemResetWarning,0830.7,5.00,000.00,023.3,021.6,000.0,032.0,024.8,16.6,0000.0,0002.16,0003.29,0001.87
2023-10-13 12:20:00,SystemResetWarning,0830.6,5.00,000.00,023.3,021.6,000.0,032.0,024.8,16.6,0000.0,0002.16,0003.33,0001.87
2023-10-13 12:21:00,SystemResetWarning,0830.6,5.00,000.00,023.3,021.6,000.0,031.9,024.8,16.6,0000.0,0002.16,0003.40,0001.85
2023-10-13 12:22:00,SystemResetWarning,0830.5,5.00,000.00,023.3,021.6,000.0,031.9,024.8,16.6,0000.0,0002.14,0003.37,0001.84
2023-10-13 12:23:00,SystemResetWarning,0830.6,5.00,000.00,023.3,021.6,000.0,031.9,024.8,16.7,0000.0,0002.15,0003.38,0001.84
2023-10-13 12:24:00,SystemResetWarning,0830.6,5.00,000.00,023.3,021.7,000.0,031.9,024.8,16.7,0000.0,0002.16,0003.41,0001.85
2023-10-13 12:25:00,SystemResetWarning,0830.6,5.00,000.00,023.3,021.7,000.0,031.9,024.8,16.7,0000.0,0002.21,0003.57,0001.85
2023-10-13 12:26:00,SystemResetWarning,0830.7,5.00,000.00,023.2,021.7,000.0,031.9,024.8,16.8,0000.0,0002.23,0003.60,0001.86
2023-10-13 12:27:00,SystemResetWarning,0830.7,5.00,000.00,023.2,021.7,000.0,031.9,024.8,16.8,0000.0,0002.21,0003.20,0001.86
2023-10-13 12:28:00,SystemResetWarning,0830.8,5.00,000.00,023.2,021.7,000.0,031.8,024.8,16.7,0000.0,0002.20,0003.19,0001.86
2023-10-13 12:29:00,SystemResetWarning,0830.8,4.99,000.00,023.2,021.7,000.0,031.8,024.8,16.7,0000.0,0002.21,0003.27,0001.85
2023-10-13 12:30:00,SystemResetWarning,0830.9,5.00,000.00,023.2,021.7,000.0,031.8,024.8,16.7,0000.0,0002.17,0003.20,0001.85
2023-10-13 12:31:00,SystemResetWarning,0830.9,4.99,000.00,023.2,021.7,000.0,031.8,024.8,16.8,0000.0,0002.16,0003.15,0001.85
2023-10-13 12:32:00,SystemResetWarning,0830.9,5.00,000.00,023.2,021.7,000.0,031.8,024.8,16.8,0000.0,0002.15,0003.03,0001.86
2023-10-13 12:33:00,SystemResetWarning,0831.0,5.00,000.00,023.2,021.7,000.0,031.8,024.7,16.8,0000.0,0002.15,0003.03,0001.88
2023-10-13 12:34:00,SystemResetWarning,0831.0,5.01,000.00,023.2,021.7,000.0,031.8,024.7,16.9,0000.0,0002.16,0003.03,0001.89
2023-10-13 12:35:00,SystemResetWarning,0831.0,5.00,000.00,023.2,021.7,000.0,031.7,024.7,16.9,0000.0,0002.16,0003.02,0001.90
2023-10-13 12:36:00,SystemResetWarning,0831.1,5.00,000.00,023.2,021.6,000.0,031.7,024.7,16.9,0000.0,0002.15,0002.93,0001.91
2023-10-13 12:37:00,SystemResetWarning,0831.1,5.00,000.00,023.2,021.6,000.0,031.7,024.7,16.9,0000.0,0002.13,0002.97,0001.91
2023-10-13 12:38:00,SystemResetWarning,0831.2,5.00,000.00,023.1,021.6,000.0,031.7,024.7,17.0,0000.0,0002.14,0003.00,0001.89
2023-10-13 12:39:00,SystemResetWarning,0831.2,4.99,000.00,023.1,021.5,000.0,031.7,024.7,17.0,0000.0,0002.19,0003.11,0001.89
2023-10-13 12:40:00,SystemResetWarning,0831.1,5.00,000.00,023.1,021.6,000.0,031.7,024.7,17.0,0000.0,0002.23,0003.11,0001.90
2023-10-13 12:41:00,SystemResetWarning,0831.1,5.00,000.00,023.1,021.6,000.0,031.7,024.6,17.0,0000.0,0002.27,0003.23,0001.90
2023-10-13 12:42:00,SystemResetWarning,0831.1,5.01,000.00,023.1,021.6,000.0,031.7,024.6,17.0,0000.0,0002.28,0003.30,0001.90
2023-10-13 12:43:00,SystemResetWarning,0831.1,4.99,000.00,023.1,021.6,000.0,031.7,024.6,17.0,0000.0,0002.31,0003.35,0001.91
2023-10-13 12:44:00,SystemResetWarning,0831.1,4.99,000.00,023.1,021.6,000.0,031.6,024.7,17.0,0000.0,0002.33,0003.39,0001.90
2023-10-13 12:45:00,SystemResetWarning,0831.1,4.99,000.00,023.1,021.7,000.0,031.6,024.7,16.9,0000.0,0002.39,0003.59,0001.91
2023-10-13 12:46:00,SystemResetWarning,0831.1,5.00,000.00,023.1,021.7,000.0,031.6,024.7,17.0,0000.0,0002.41,0003.70,0001.91
2023-10-13 12:47:00,SystemResetWarning,0831.1,5.00,000.00,023.1,021.7,000.0,031.6,024.7,17.0,0000.0,0002.42,0003.77,0001.92
2023-10-13 12:48:00,SystemResetWarning,0831.1,5.00,000.00,023.1,021.8,000.0,031.6,024.7,17.0,0000.0,0002.45,0003.84,0001.93
2023-10-13 12:49:00,SystemResetWarning,0831.1,5.00,000.00,023.1,021.8,000.0,031.6,024.7,17.1,0000.0,0002.41,0003.93,0001.93
2023-10-13 12:50:00,SystemResetWarning,0831.1,5.00,000.00,023.1,021.8,000.0,031.6,024.7,17.1,0000.0,0002.39,0004.55,0001.95
2023-10-13 12:51:00,SystemResetWarning,0831.1,5.00,000.00,023.1,021.8,000.0,031.6,024.7,17.1,0000.0,0002.37,0004.68,0001.97
2023-10-13 12:52:00,SystemResetWarning,0831.2,5.00,000.00,023.1,021.8,000.0,031.6,024.7,17.1,0000.0,0002.34,0004.74,0001.98
2023-10-13 12:53:00,SystemResetWarning,0831.1,5.00,000.00,023.1,021.8,000.0,031.6,024.7,17.2,0000.0,0002.40,0004.92,0001.99
2023-10-13 12:54:00,SystemResetWarning,0831.1,5.00,000.00,023.1,021.7,000.0,031.6,024.7,17.2,0000.0,0002.45,0005.08,0002.00
2023-10-13 12:55:00,SystemResetWarning,0831.0,4.99,000.00,023.1,021.7,000.0,031.6,024.7,17.2,0000.0,0002.49,0005.20,0002.02
2023-10-13 12:56:00,SystemResetWarning,0830.9,5.00,000.00,023.1,021.6,000.0,031.6,024.6,17.2,0000.0,0002.52,0005.27,0002.01
2023-10-13 12:57:00,SystemResetWarning,0831.0,5.01,000.00,023.1,021.6,000.0,031.6,024.6,17.2,0000.0,0002.53,0005.30,0002.01
2023-10-13 12:58:00,SystemResetWarning,0831.1,5.01,000.00,023.0,021.5,000.0,031.6,024.5,17.3,0000.0,0002.56,0005.36,0002.02
2023-10-13 12:59:00,SystemResetWarning,0831.1,5.00,000.00,023.0,021.5,000.0,031.6,024.5,17.3,0000.0,0002.55,0005.27,0002.02
